Location: Albany
(35.0000°S, 118.0000°E)
Time: 14:48:52
(UTC-04:00)

Vanguard 3 - Visible Passes

Search period start: 04 September 2015 00:00
Search period end: 14 September 2015 00:00
Orbit: 508 x 3269 km, 33.3° (Epoch: 02 September)

Date Brightness Start Highest point End Pass type
(mag) Time Alt. Az. Time Alt. Az. Time Alt. Az.
05 Sep 9.5 06:10:37 10° W 06:14:35 16° NW 06:17:31 10° N visible
11 Sep 11.7 16:59:15 10° NE 17:03:00 11° NE 17:09:26 10° ENE visible
13 Sep 11.5 16:41:03 10° NNE 16:47:38 14° NE 16:57:02 10° ENE visible
